TimeCST,TemperatureF,Dew PointF,Humidity,Sea Level PressureIn,VisibilityMPH,Wind Direction,Wind SpeedMPH,Gust SpeedMPH,PrecipitationIn,Events,Conditions,WindDirDegrees,DateUTC
12:53 AM,23.0,15.1,72,30.42,10.0,SSE,3.5,-,N/A,,Clear,150,2012-11-24 06:53:00
1:53 AM,19.9,14.0,78,30.40,10.0,South,5.8,-,N/A,,Clear,190,2012-11-24 07:53:00
2:53 AM,19.9,14.0,78,30.40,10.0,South,4.6,-,N/A,,Clear,180,2012-11-24 08:53:00
3:53 AM,21.9,15.1,75,30.36,10.0,SSE,3.5,-,N/A,,Clear,160,2012-11-24 09:53:00
4:53 AM,23.0,15.1,72,30.35,10.0,South,4.6,-,N/A,,Clear,170,2012-11-24 10:53:00
5:53 AM,23.0,16.0,74,30.33,10.0,SSE,8.1,-,N/A,,Clear,150,2012-11-24 11:53:00
6:53 AM,25.0,17.1,72,30.31,10.0,South,10.4,-,N/A,,Clear,170,2012-11-24 12:53:00
7:53 AM,28.9,18.0,64,30.28,10.0,South,15.0,-,N/A,,Clear,170,2012-11-24 13:53:00
8:53 AM,35.1,18.0,50,30.25,10.0,South,19.6,26.5,N/A,,Clear,170,2012-11-24 14:53:00
9:53 AM,39.0,19.0,45,30.21,9.0,South,15.0,25.3,0.00,,Clear,180,2012-11-24 15:53:00
10:53 AM,44.1,19.9,38,30.17,10.0,South,17.3,27.6,N/A,,Clear,180,2012-11-24 16:53:00
11:53 AM,48.0,21.0,34,30.10,10.0,South,18.4,29.9,N/A,,Clear,180,2012-11-24 17:53:00
12:53 PM,50.0,21.0,32,30.07,10.0,South,17.3,-,N/A,,Clear,190,2012-11-24 18:53:00
1:53 PM,55.9,21.9,27,30.01,10.0,SSW,20.7,26.5,N/A,,Clear,200,2012-11-24 19:53:00
2:53 PM,59.0,24.1,26,29.97,10.0,SSW,19.6,25.3,N/A,,Clear,200,2012-11-24 20:53:00
3:53 PM,57.9,24.1,27,29.94,10.0,South,12.7,24.2,N/A,,Clear,190,2012-11-24 21:53:00
4:53 PM,54.0,25.0,33,29.92,10.0,South,9.2,-,N/A,,Clear,170,2012-11-24 22:53:00
5:53 PM,50.0,24.1,36,29.91,10.0,SSE,10.4,-,N/A,,Clear,160,2012-11-24 23:53:00
6:53 PM,46.0,23.0,40,29.92,10.0,SSE,5.8,-,N/A,,Clear,150,2012-11-25 00:53:00
7:53 PM,45.0,24.1,44,29.90,10.0,South,6.9,-,N/A,,Clear,170,2012-11-25 01:53:00
8:53 PM,48.9,24.1,38,29.88,10.0,South,8.1,-,N/A,,Clear,180,2012-11-25 02:53:00
9:53 PM,48.9,23.0,36,29.87,10.0,South,11.5,-,N/A,,Clear,180,2012-11-25 03:53:00
10:53 PM,46.9,23.0,39,29.86,10.0,South,11.5,-,N/A,,Clear,190,2012-11-25 04:53:00
11:53 PM,48.0,23.0,37,29.86,10.0,South,15.0,-,N/A,,Clear,190,2012-11-25 05:53:00